Simultaneous Nadir Overpasses (SNOs) Predictions

Prediction of SNOs between GOES-16 and LANDSAT-8 Satellite Orbit:

Table of predicted SNOs for the next 14.0 days since TLE Epoch: 5/22/2021
Index Date Time (GOES-16) GOES-16 Lat,Lon LANDSAT-8 Lat,Lon Distance(km) Time Diff (sec)
1 05/23/2021 14:53:59 -0.00, -75.19 -0.90, -70.98 478.51 80
2 05/24/2021 03:18:03 -0.00, -75.18 -0.23, -76.17 112.58 80
3 05/26/2021 03:03:13 0.00, -75.19 0.41, -73.21 223.77 80
4 05/26/2021 15:27:08 -0.00, -75.19 0.68, -78.37 361.58 80
5 05/28/2021 15:14:58 -0.02, -75.20 0.04, -75.42 25.20 80
6 05/30/2021 15:00:09 -0.03, -75.21 -0.61, -72.47 311.81 80
7 05/31/2021 03:24:12 0.03, -75.21 -0.52, -77.65 278.84 80
8 06/02/2021 03:09:22 0.04, -75.23 0.13, -74.70 59.51 80
9 06/04/2021 02:57:12 0.04, -75.26 0.78, -71.75 398.79 80
10 06/04/2021 15:21:08 -0.04, -75.28 0.31, -76.91 185.71 80
